[[{"header":{"parameterUnit":"m.s-1","parameterCategory":1,"la1":30.2991,"la2":30.254,"lo1":-89.0895,"lo2":-89.0444,"dy":0.0017,"dx":0.0017,"nx":28,"ny":28,"refTime":"2025-04-10T03:00:00:Z","depth":0,"parameterNumber":2,"parameterNumberName":"U-component_of_WINDS"},"data":[0,0,0,0,0,0,0,0,0,0,0,0,0,0,0,0,0,0,0,0,0,0,0,0,0,0,0,0,0,0,0,0,0,0,0,0,0,0,0,0,0,0,0,0,0,0,0,0,0,0,0,0,0,0,0,0,0,0,3.9183,3.9185,0,3.9392,3.9394,3.9397,3.9391,3.9388,3.9385,3.9382,3.9593,3.9601,3.9609,0,0,0,0,0,0,0,0,0,0,0,0,0,3.8775,3.8782,3.9183,3.9185,3.9188,3.9392,3.9394,3.9397,3.9391,3.9388,3.9384,3.9381,3.959,3.96,3.9609,0,0,0,0,0,0,0,0,0,0,0,0,0,3.8965,3.8785,3.9182,3.921,3.9214,3.9391,3.9395,3.9398,3.9392,3.9388,3.9383,3.9379,3.9587,3.9599,3.9611,3.9773,0,0,3.9649,3.9654,0,0,0,0,0,0,0,0,3.8954,3.898,3.9203,3.9208,3.9213,3.9361,3.9328,3.9524,3.9393,3.9324,3.9382,3.9377,3.9519,3.9536,3.9585,3.9783,3.9792,3.965,3.9657,3.9663,3.9666,0,0,0,0,0,0,0,3.8941,3.8971,3.9265,3.9206,3.9213,3.921,3.9232,3.9365,3.9443,3.933,3.933,3.9355,3.9521,3.9573,3.959,3.9795,3.9649,3.966,3.9668,3.9673,4.0136,4.014,0,0,0,0,0,0,3.8922,3.896,3.9259,3.9272,3.9071,3.9221,3.9246,3.9318,3.9441,3.9456,3.9359,3.9354,3.9554,3.9575,3.9597,3.9794,3.9663,3.9674,3.9681,4.0131,4.0137,4.0142,0,0,0,0,0,0,3.8914,3.8949,3.925,3.9116,3.9154,3.9233,3.9313,3.9324,3.9376,3.9463,3.9477,3.9398,3.9551,3.958,3.9729,3.9801,3.968,3.9691,4.0125,4.0133,4.0139,4.019,0,0,0,0,0,0,3.8902,3.8946,3.9009,3.9117,3.9161,3.938,3.9318,3.9331,3.9398,3.9394,3.9504,3.9517,3.955,3.9711,3.9742,3.9816,3.9701,4.0119,4.0128,4.0137,4.0182,4.0198,4.0212,0,0,0,0,0,3.8887,3.9015,3.9012,3.9049,3.9242,3.9384,3.9409,3.9446,3.9404,3.9468,3.9523,3.9514,3.9789,3.9726,3.9761,3.984,4.0114,4.0126,4.0136,4.0175,4.0195,4.0211,0,0,0,0,0,0,3.8911,3.9029,3.9028,3.9194,3.928,3.9383,3.9464,3.9465,3.9563,3.9555,3.9595,3.9619,3.9769,3.982,3.9748,4.0003,3.9946,3.9965,3.9964,3.9983,3.9998,3.9981,3.9711,0,0,0,0,0,3.8937,3.9043,3.914,3.9277,3.932,3.9385,3.9449,3.9469,3.9559,3.9594,3.9661,3.9747,3.9852,3.9921,4.0023,4.019,4.0213,4.0262,4.0276,4.0288,4.0303,4.0393,4.0416,4.0178,4.0178,4.0177,0,0,3.8988,3.9066,3.9131,3.9284,3.9353,3.9461,3.9415,3.9532,3.9613,3.9612,3.9757,3.9809,3.9907,4.0066,4.0139,4.0113,4.0374,4.0302,4.0311,4.0319,4.0407,4.0429,4.0449,4.0185,4.0184,4.0183,0,0,3.9138,3.9209,3.933,3.94,3.9505,3.9547,3.9576,3.9681,3.9715,3.9862,3.9863,3.9959,4.0141,4.0211,4.027,4.0447,4.0441,4.0479,4.0555,4.0643,4.0662,4.0678,4.074,4.0762,4.0494,4.0494,4.0494,0,3.9189,3.9354,3.9392,3.951,3.9577,3.9582,3.9705,3.977,3.9902,3.9948,3.9917,4.0145,4.0212,4.0386,4.0429,4.0478,4.0511,4.0466,4.0656,4.0673,4.069,4.0748,4.0772,4.0498,4.0497,4.0497,4.0497,0,3.9411,3.9525,3.9611,3.9739,3.9816,3.9935,3.999,4.0063,4.0077,4.0122,4.0271,4.0352,4.047,4.0513,4.0528,4.069,4.067,4.0648,4.0591,4.0715,4.0771,4.0794,4.0503,4.0502,4.0501,4.05,0,0,3.9581,3.973,3.976,3.9818,3.9934,4.0022,4.0142,4.0258,4.0319,4.041,4.051,4.0664,4.0644,4.0711,4.0734,4.0812,4.0944,4.0779,4.0782,4.0805,4.1126,4.1141,4.1166,4.0942,4.0947,4.0951,4.1117,0,3.9742,3.9955,3.9992,4.0178,4.0283,4.029,4.0393,4.0475,4.0521,4.0615,4.0665,4.0773,4.0739,4.078,4.0857,4.0912,4.1009,4.0901,4.1034,4.1038,4.1007,4.1196,4.1212,4.1365,4.1139,4.1143,4.1146,0,3.9958,4.0055,4.0251,4.0352,4.0398,4.049,4.06,4.0691,4.0783,4.0811,4.0887,4.09,4.1023,4.0962,4.1131,4.1057,4.1113,4.1149,4.1156,4.1167,4.1098,4.1211,4.1415,4.1437,4.1181,4.1178,4.1175,0,4.006,4.024,4.038,4.043,4.0552,4.0617,4.067,4.0759,4.0826,4.0922,4.0966,4.1074,4.1133,4.1216,4.1258,4.121,4.1423,4.1366,4.1448,4.1447,4.149,4.1487,4.1704,4.1531,4.153,4.153,4.1529,0,4.0234,4.0354,4.0428,4.0514,4.0647,4.0689,4.0819,4.0872,4.095,4.1045,4.1058,4.1147,4.1199,4.1295,4.1329,4.1462,4.1489,4.1513,4.152,4.1511,4.1508,4.1547,4.1537,4.1536,4.1535,4.1533,4.1532,0,4.0371,4.0425,4.0578,4.0682,4.071,4.0804,4.0891,4.0974,4.102,4.114,4.1171,4.1242,4.1356,4.1407,4.1547,4.157,4.1721,4.1722,4.169,4.1692,4.177,4.1762,4.202,4.2055,4.1859,4.1861,4.1863,0,4.0478,4.057,4.0683,4.0748,4.0803,4.0908,4.0977,4.1022,4.1093,4.1205,4.1274,4.1389,4.1483,4.1664,4.1727,4.1834,4.1836,4.1919,4.1852,4.1839,4.1835,4.1828,4.1837,4.193,4.1932,4.1934,4.1935,0,4.0661,4.0684,4.0783,4.0893,4.0975,4.1063,4.1148,4.1201,4.1259,4.1338,4.1455,4.1528,4.1671,4.1784,4.1895,4.1948,4.1951,4.1956,4.198,4.1971,4.1948,4.1959,4.1721,4.195,4.1948,4.1947,4.1946,4.1946,4.0785,4.0867,4.0959,4.1069,4.1138,4.1218,4.1301,4.1357,4.1456,4.1576,4.1597,4.1721,4.181,4.196,4.2018,4.2114,4.2094,4.213,4.2138,4.2146,4.2149,4.1934,4.2135,4.2135,4.2134,4.2134,4.2134,0,4.0968,4.1028,4.1129,4.1249,4.1335,4.1332,4.1426,4.1498,4.1608,4.1691,4.1783,4.1917,4.2026,4.2098,4.2209,4.2272,4.2276,4.2299,4.2294,4.2306,4.2162,4.2129,4.2294,4.2294,4.2294,4.2294,4.2294,4.2294,4.1073,4.1211,4.1244,4.1415,4.1473,4.1596,4.165,4.1723,4.179,4.1938,4.203,4.2076,4.2155,4.2271,4.2371,4.2389,4.2428,4.2452,4.2469,4.2333,4.2316,4.23,4.2269,4.2461,4.2461,4.2605,4.2606,4.2607]},{"header":{"parameterUnit":"m.s-1","parameterCategory":1,"la1":30.2991,"la2":30.254,"lo1":-89.0895,"lo2":-89.0444,"dy":0.0017,"dx":0.0017,"nx":28,"ny":28,"refTime":"2025-04-10T03:00:00:Z","depth":0,"parameterNumber":3,"parameterNumberName":"V-component_of_WINDS"},"data":[0,0,0,0,0,0,0,0,0,0,0,0,0,0,0,0,0,0,0,0,0,0,0,0,0,0,0,0,0,0,0,0,0,0,0,0,0,0,0,0,0,0,0,0,0,0,0,0,0,0,0,0,0,0,0,0,0,0,1.345,1.3451,0,1.3512,1.3512,1.3513,1.3467,1.3465,1.3462,1.3461,1.3535,1.3538,1.3542,0,0,0,0,0,0,0,0,0,0,0,0,0,1.3302,1.3305,1.345,1.3451,1.3452,1.3511,1.3512,1.3513,1.3467,1.3464,1.3462,1.346,1.3533,1.3538,1.3543,0,0,0,0,0,0,0,0,0,0,0,0,0,1.3366,1.3306,1.345,1.3436,1.3435,1.3511,1.3512,1.3513,1.3467,1.3464,1.3461,1.3458,1.3532,1.3537,1.3543,1.3641,0,0,1.3561,1.3563,0,0,0,0,0,0,0,0,1.3362,1.3371,1.3437,1.3437,1.3436,1.3478,1.3487,1.3557,1.3468,1.3456,1.346,1.3457,1.3519,1.3526,1.3544,1.3644,1.3647,1.3561,1.3565,1.3568,1.3569,0,0,0,0,0,0,0,1.3358,1.3368,1.3475,1.3438,1.3438,1.3429,1.3435,1.35,1.3504,1.3456,1.3453,1.346,1.3518,1.3539,1.3546,1.3648,1.3561,1.3566,1.357,1.3572,1.3831,1.3834,0,0,0,0,0,0,1.3353,1.3365,1.3473,1.3477,1.339,1.3434,1.344,1.3468,1.3503,1.3505,1.3463,1.3458,1.353,1.3539,1.3548,1.3664,1.3567,1.3573,1.3576,1.3828,1.3832,1.3835,0,0,0,0,0,0,1.335,1.3363,1.347,1.342,1.3433,1.344,1.3471,1.3471,1.3491,1.3508,1.3509,1.3483,1.3528,1.354,1.3617,1.3666,1.3576,1.3581,1.3824,1.3829,1.3833,1.3898,0,0,0,0,0,0,1.3346,1.3362,1.3398,1.3421,1.3435,1.3536,1.3474,1.3474,1.35,1.3494,1.3527,1.353,1.3527,1.3609,1.3623,1.3673,1.3585,1.3819,1.3826,1.3832,1.3891,1.3904,1.3916,0,0,0,0,0,1.3341,1.3416,1.34,1.3413,1.3479,1.3539,1.3548,1.354,1.3504,1.3541,1.3551,1.3528,1.3658,1.3617,1.3633,1.3685,1.3816,1.3824,1.3831,1.3886,1.3902,1.3915,0,0,0,0,0,0,1.3403,1.3419,1.3401,1.3485,1.351,1.3531,1.3577,1.3557,1.3596,1.3589,1.3581,1.3589,1.367,1.3685,1.3639,1.3781,1.3732,1.3743,1.3768,1.3783,1.3795,1.3791,1.359,0,0,0,0,0,1.3425,1.3469,1.3482,1.3555,1.3568,1.357,1.3596,1.3587,1.3615,1.3627,1.3643,1.3674,1.3721,1.3753,1.3797,1.3892,1.39,1.3936,1.3948,1.3958,1.3969,1.402,1.4037,1.386,1.386,1.386,0,0,1.3475,1.3489,1.3518,1.3568,1.3587,1.3635,1.358,1.3634,1.3671,1.3636,1.3709,1.3722,1.3755,1.3841,1.3881,1.3857,1.4019,1.3968,1.3976,1.3981,1.403,1.4047,1.4062,1.3865,1.3864,1.3864,0,0,1.3588,1.3603,1.3665,1.3683,1.371,1.3711,1.3725,1.3748,1.3754,1.3826,1.3801,1.3846,1.3927,1.3952,1.3975,1.4095,1.4076,1.411,1.4175,1.4225,1.4239,1.4252,1.4295,1.4311,1.412,1.4121,1.4121,0,1.3647,1.3715,1.37,1.3755,1.3778,1.3744,1.3808,1.3828,1.3871,1.3889,1.386,1.3961,1.3981,1.4073,1.4101,1.4121,1.414,1.4108,1.4238,1.425,1.4261,1.4303,1.432,1.4125,1.4124,1.4124,1.4123,0,1.3786,1.3834,1.3882,1.3918,1.3947,1.4007,1.4002,1.4034,1.4022,1.4026,1.41,1.4122,1.4171,1.4191,1.4182,1.4282,1.4266,1.4238,1.4189,1.4282,1.4322,1.4337,1.413,1.4129,1.4128,1.4127,0,0,1.3944,1.3968,1.3986,1.4002,1.4028,1.4067,1.4125,1.4167,1.4195,1.4225,1.4275,1.4343,1.4316,1.4343,1.4336,1.438,1.4474,1.4346,1.4347,1.437,1.4586,1.4608,1.4627,1.446,1.4463,1.4466,1.4584,0,1.4059,1.4156,1.4143,1.4238,1.4283,1.425,1.4301,1.4324,1.4329,1.437,1.4377,1.4425,1.4386,1.4401,1.4443,1.4454,1.4518,1.4445,1.451,1.4513,1.4504,1.4647,1.4671,1.4782,1.4599,1.4602,1.4603,0,1.4208,1.4238,1.4336,1.4353,1.4372,1.4418,1.4455,1.4494,1.452,1.452,1.4548,1.4533,1.4594,1.4541,1.4626,1.4577,1.4602,1.4612,1.4616,1.4623,1.4565,1.466,1.4817,1.4834,1.4627,1.4625,1.4624,0,1.4314,1.4379,1.4446,1.4461,1.4483,1.4516,1.4527,1.4549,1.4576,1.461,1.4627,1.4669,1.4693,1.4727,1.4724,1.4686,1.4811,1.4758,1.4816,1.4816,1.4846,1.4844,1.501,1.4859,1.4859,1.4859,1.4858,0,1.4445,1.4507,1.4494,1.4535,1.4604,1.4588,1.4658,1.4665,1.4685,1.4729,1.4705,1.4748,1.474,1.4784,1.4782,1.4854,1.4865,1.4869,1.4868,1.4872,1.4871,1.489,1.4883,1.4863,1.4862,1.4861,1.4861,0,1.4576,1.4569,1.464,1.4654,1.4658,1.4709,1.4722,1.4762,1.4763,1.4819,1.4832,1.4836,1.4886,1.4885,1.4944,1.4942,1.503,1.502,1.502,1.5018,1.5076,1.5071,1.5261,1.5286,1.5118,1.5119,1.5121,0,1.4661,1.4707,1.4724,1.475,1.4762,1.4805,1.483,1.4817,1.4845,1.4876,1.4913,1.496,1.4996,1.5078,1.5088,1.5132,1.5124,1.5187,1.5131,1.5133,1.5127,1.5124,1.513,1.52,1.5201,1.5203,1.5204,0,1.4813,1.4806,1.4842,1.4876,1.4906,1.4933,1.4958,1.4982,1.4972,1.5005,1.5053,1.5081,1.5138,1.5185,1.5227,1.5242,1.5223,1.5221,1.5237,1.5243,1.5241,1.5244,1.5052,1.5218,1.5216,1.5215,1.5215,1.5214,1.4924,1.4963,1.498,1.5021,1.5037,1.506,1.5098,1.5102,1.5141,1.5184,1.5174,1.5229,1.5254,1.5307,1.5326,1.537,1.5348,1.5371,1.5377,1.5384,1.539,1.5232,1.5378,1.5377,1.5377,1.5377,1.5376,0,1.5076,1.5084,1.5121,1.5154,1.5187,1.516,1.5186,1.5216,1.5262,1.5285,1.532,1.5376,1.5421,1.5433,1.5477,1.551,1.5502,1.5522,1.5521,1.5525,1.5407,1.5389,1.5528,1.5528,1.5528,1.5528,1.5528,1.5528,1.5158,1.5222,1.5218,1.5291,1.5299,1.5349,1.5367,1.5389,1.5406,1.5468,1.5504,1.5509,1.5529,1.5573,1.5614,1.5617,1.5635,1.5659,1.5659,1.5548,1.5533,1.5519,1.5502,1.5663,1.5663,1.5773,1.5774,1.5775]}]]